EJU65TN LFPG-EGNT

Flight info

Callsign EJU65TN
Flight time N/A
Altitude 36000
Route ATREX DCT VESAN DCT RATUK DCT SOVAT L613 MAMUL UY250 RIMTO
Aircraft A319/M-SDE2E3FGIJ1RWXYZ/LB1

Departure

Time N/A
Airport Charles de Gaulle International Airport (LFPG)

Arrival

Time 2026-04-30 09:23
Airport Newcastle International Airport (EGNT)
Time Latitude Longitude Altitude Speed Heading
2026-04-30 09:03 54.95205 -1.25838 28294 ft 391 kts 143°
2026-04-30 09:03 54.92825 -1.23408 26463 ft 406 kts 159°
2026-04-30 09:03 54.90043 -1.22273 24683 ft 419 kts 175°
2026-04-30 09:04 54.87144 -1.22722 23005 ft 429 kts 193°
2026-04-30 09:04 54.84408 -1.24836 21577 ft 434 kts 212°
2026-04-30 09:04 54.82258 -1.28375 21094 ft 418 kts 230°
2026-04-30 09:04 54.80788 -1.32573 20667 ft 400 kts 238°
2026-04-30 09:05 54.79456 -1.36869 19240 ft 409 kts 238°
2026-04-30 09:05 54.78123 -1.41286 17633 ft 418 kts 239°
2026-04-30 09:05 54.76792 -1.45789 16214 ft 420 kts 239°
2026-04-30 09:05 54.75480 -1.50276 15071 ft 415 kts 239°
2026-04-30 09:06 54.74184 -1.54709 13990 ft 410 kts 239°
2026-04-30 09:06 54.72901 -1.59075 12808 ft 405 kts 239°
2026-04-30 09:06 54.71628 -1.63374 11852 ft 396 kts 238°
2026-04-30 09:06 54.70416 -1.67459 11612 ft 367 kts 238°
2026-04-30 09:07 54.69282 -1.71209 11479 ft 338 kts 236°
2026-04-30 09:07 54.68211 -1.74647 11351 ft 316 kts 241°
2026-04-30 09:07 54.67637 -1.78214 11240 ft 304 kts 259°
2026-04-30 09:07 54.67731 -1.81794 10979 ft 298 kts 277°
2026-04-30 09:08 54.68459 -1.85145 10598 ft 297 kts 298°
2026-04-30 09:08 54.69765 -1.87824 10353 ft 291 kts 321°
2026-04-30 09:08 54.71514 -1.89479 10213 ft 286 kts 345°
2026-04-30 09:08 54.73455 -1.89914 9968 ft 280 kts
2026-04-30 09:09 54.75299 -1.89103 9805 ft 271 kts 30°
2026-04-30 09:09 54.76997 -1.87687 9547 ft 271 kts 32°
2026-04-30 09:09 54.78676 -1.86291 9417 ft 262 kts 30°
2026-04-30 09:09 54.80294 -1.84950 9288 ft 255 kts 30°
2026-04-30 09:10 54.81889 -1.83626 9161 ft 253 kts 30°
2026-04-30 09:10 54.83476 -1.82309 9043 ft 253 kts 30°
2026-04-30 09:10 54.85018 -1.81028 8912 ft 244 kts 30°
2026-04-30 09:10 54.86540 -1.79762 8781 ft 235 kts 30°
2026-04-30 09:11 54.87967 -1.78576 8659 ft 226 kts 31°
2026-04-30 09:11 54.89360 -1.77417 8532 ft 218 kts 30°
2026-04-30 09:11 54.90705 -1.76299 8406 ft 212 kts 31°
2026-04-30 09:11 54.92026 -1.75195 8281 ft 209 kts 31°
2026-04-30 09:12 54.93335 -1.74094 8158 ft 209 kts 31°
2026-04-30 09:12 54.94638 -1.72997 8040 ft 208 kts 31°
2026-04-30 09:12 54.95937 -1.71905 7930 ft 208 kts 31°
2026-04-30 09:12 54.97239 -1.70815 7769 ft 206 kts 31°
2026-04-30 09:13 54.98378 -1.69860 7741 ft 206 kts 31°
2026-04-30 09:13 54.99674 -1.68776 7684 ft 207 kts 31°
2026-04-30 09:13 55.01064 -1.68100 7602 ft 214 kts
2026-04-30 09:13 55.02513 -1.68756 7501 ft 221 kts 330°
2026-04-30 09:14 55.03582 -1.70670 7307 ft 226 kts 298°
2026-04-30 09:14 55.03908 -1.73346 6895 ft 230 kts 262°
2026-04-30 09:14 55.03599 -1.76076 6525 ft 232 kts 255°
2026-04-30 09:14 55.03249 -1.78857 6147 ft 236 kts 255°
2026-04-30 09:15 55.02903 -1.81634 5788 ft 233 kts 255°
2026-04-30 09:15 55.02563 -1.84372 5445 ft 229 kts 255°
2026-04-30 09:15 55.02226 -1.87074 5090 ft 227 kts 255°
2026-04-30 09:15 55.01892 -1.89748 4736 ft 224 kts 255°
2026-04-30 09:16 55.01567 -1.92380 4395 ft 221 kts 255°
2026-04-30 09:16 55.01243 -1.94980 4061 ft 219 kts 255°
2026-04-30 09:16 55.00921 -1.97559 3803 ft 214 kts 255°
2026-04-30 09:16 55.00489 -1.99982 3723 ft 205 kts 233°
2026-04-30 09:17 54.99458 -2.01526 3637 ft 193 kts 196°
2026-04-30 09:17 54.98173 -2.01738 3547 ft 183 kts 163°
2026-04-30 09:17 54.97074 -2.00769 3457 ft 177 kts 134°
2026-04-30 09:17 54.96426 -1.99006 3364 ft 174 kts 106°
2026-04-30 09:18 54.96376 -1.96920 3275 ft 176 kts 78°
2026-04-30 09:18 54.96842 -1.94966 3215 ft 179 kts 68°
2026-04-30 09:18 54.97365 -1.93037 3061 ft 174 kts 68°
2026-04-30 09:18 54.97877 -1.91139 2822 ft 171 kts 68°
2026-04-30 09:19 54.98371 -1.89296 2585 ft 164 kts 68°
2026-04-30 09:19 54.98823 -1.87615 2392 ft 143 kts 67°
2026-04-30 09:19 54.99222 -1.86127 2209 ft 130 kts 68°
2026-04-30 09:19 54.99595 -1.84728 2043 ft 126 kts 68°
2026-04-30 09:20 54.99962 -1.83353 1877 ft 125 kts 68°
2026-04-30 09:20 55.00327 -1.81986 1728 ft 124 kts 67°
2026-04-30 09:20 55.00694 -1.80613 1556 ft 126 kts 67°
2026-04-30 09:20 55.01063 -1.79231 1388 ft 126 kts 67°
2026-04-30 09:21 55.01431 -1.77853 1225 ft 126 kts 66°
2026-04-30 09:21 55.01800 -1.76471 1050 ft 125 kts 66°
2026-04-30 09:21 55.02168 -1.75087 882 ft 126 kts 66°
2026-04-30 09:21 55.02538 -1.73700 717 ft 125 kts 66°
2026-04-30 09:22 55.02905 -1.72321 560 ft 126 kts 66°
2026-04-30 09:22 55.03271 -1.70940 373 ft 125 kts 66°
2026-04-30 09:22 55.03633 -1.69576 261 ft 118 kts 66°
2026-04-30 09:22 55.03924 -1.68483 249 ft 76 kts 65°
2026-04-30 09:23 55.04041 -1.68048 248 ft 25 kts 65°
2026-04-30 09:23 55.04116 -1.67774 247 ft 25 kts 64°
2026-04-30 09:23 55.04188 -1.67512 244 ft 22 kts 68°
2026-04-30 09:23 55.04259 -1.67366 241 ft 17 kts
2026-04-30 09:24 55.04328 -1.67493 242 ft 16 kts 281°
2026-04-30 09:24 55.04329 -1.67615 243 ft 9 kts 257°
2026-04-30 09:24 55.04305 -1.67709 245 ft 8 kts 245°
2026-04-30 09:24 55.04282 -1.67796 246 ft 8 kts 245°
2026-04-30 09:25 55.04259 -1.67878 247 ft 7 kts 244°
2026-04-30 09:25 55.04237 -1.67973 247 ft 11 kts 247°
2026-04-30 09:25 55.04203 -1.68109 247 ft 13 kts 246°
2026-04-30 09:25 55.04166 -1.68257 248 ft 14 kts 246°
2026-04-30 09:26 55.04126 -1.68410 248 ft 14 kts 244°
2026-04-30 09:26 55.04084 -1.68564 249 ft 14 kts 244°
2026-04-30 09:26 55.04048 -1.68701 250 ft 11 kts 245°
2026-04-30 09:26 55.04020 -1.68802 250 ft 7 kts 245°
2026-04-30 09:27 55.04001 -1.68875 251 ft 7 kts 245°
2026-04-30 09:27 55.03974 -1.68980 251 ft 12 kts 247°
2026-04-30 09:27 55.03933 -1.69142 253 ft 17 kts 245°
2026-04-30 09:27 55.03883 -1.69332 254 ft 16 kts 245°
2026-04-30 09:28 55.03841 -1.69488 256 ft 12 kts 247°
2026-04-30 09:28 55.03813 -1.69620 257 ft 13 kts 249°
2026-04-30 09:28 55.03785 -1.69827 259 ft 22 kts 261°
2026-04-30 09:28 55.03775 -1.70082 262 ft 19 kts 269°
2026-04-30 09:29 55.03779 -1.70283 265 ft 14 kts 274°
2026-04-30 09:29 55.03791 -1.70421 267 ft 11 kts 281°
2026-04-30 09:29 55.03793 -1.70440 267 ft 0 kts 280°
2026-04-30 09:30 55.03793 -1.70446 267 ft 3 kts 279°
2026-04-30 09:30 55.03803 -1.70549 267 ft 11 kts 276°
2026-04-30 09:30 55.03792 -1.70659 267 ft 8 kts 216°
2026-04-30 09:30 55.03742 -1.70670 267 ft 7 kts 183°
2026-04-30 09:31 55.03732 -1.70671 267 ft 0 kts 184°